Flag for Mauritania Weather past 2 weeks in Nouakchott, Mauritania

Now
82 °F

Clear.


Feels Like: 81 °F
Forecast: 74 / 95 °F
Wind: 12 mph from North

Location: Nouakchott Airport


UV Index: 10 (Very high)

Visibility: 5 mi


Pressure: 29.86 "Hg

Humidity: 32%

Dew point: 50 °F

Location of NouakchottLocation

Historic Weather in Nouakchott

°F

Nouakchott temperature yesterday

Maximum temperature yesterday: 108 °F (at 2:30 PM)
Minimum temperature yesterday: 75 °F (at 12:00 AM)
Average temperature yesterday: 88 °F

Past Weeks' High & Low Weather Summary

 TemperatureHumidityPressure
High109 °F (Apr 17, 1:30 PM)100% (Apr 7, 3:30 AM)29.98 "Hg (Apr 7, 3:30 AM)
Low63 °F (Apr 7, 3:30 AM)7% (Apr 17, 2:00 PM)29.71 "Hg (Apr 18, 5:00 PM)
Average76 °F56%29.87 "Hg
* Reported Midnight between Apr 4 and Apr 5 — Midnight between Apr 19 and Apr 20, Nouakchott, Weather by CustomWeather, © 2014

Note: Actual official high and low records may vary slightly from our data, if they occured in-between our weather recording intervals... More about our weather records

Advertising

Historic Weather Conditions — Data for Previous 24 hours

 ConditionsComfort  
Time TempWeatherWind HumidityBarometerVisibility
12:00 AM
Apr 20
81 °FClear.12 mph45%29.86 "Hg5 mi
11:30 PM
Apr 19
79 °FClear.8 mph58%29.89 "Hg5 mi
11:00 PM77 °FClear.10 mph61%29.86 "Hg5 mi
10:30 PM77 °FClear.12 mph65%29.86 "Hg5 mi
10:00 PM77 °FClear.15 mph61%29.86 "Hg5 mi
9:30 PM77 °FClear.18 mph57%29.86 "Hg5 mi
9:00 PM77 °FClear.16 mph57%29.83 "Hg4 mi
8:30 PM77 °FClear.17 mph57%29.83 "Hg4 mi
8:00 PM79 °FClear.16 mph51%29.83 "Hg4 mi
7:30 PM86 °FClear.9 mph33%29.80 "Hg4 mi
7:00 PM90 °FClear.10 mph29%29.80 "Hg4 mi
6:30 PM93 °FClear.8 mph24%29.80 "Hg4 mi
6:00 PM102 °FClear.7 mph17%29.77 "Hg4 mi
5:30 PM108 °FClear.13 mph8%29.77 "Hg4 mi
5:00 PM106 °FClear.13 mph8%29.77 "Hg4 mi
4:30 PM108 °FClear.15 mph8%29.77 "Hg4 mi
4:00 PM108 °FClear.15 mph8%29.80 "Hg4 mi
3:00 PM108 °FClear.17 mph8%29.80 "Hg4 mi
2:30 PM108 °FLow level haze.18 mph8%29.80 "Hg2 mi
2:00 PM106 °FLow level haze.22 mph8%29.83 "Hg2 mi
1:30 PM106 °FLow level haze.20 mph8%29.83 "Hg2 mi
12:30 PM104 °FLow level haze.22 mph9%29.86 "Hg2 mi
12:00 PM102 °FLow level haze.21 mph9%29.89 "Hg2 mi
11:30 AM100 °FLow level haze.23 mph8%29.89 "Hg2 mi
11:00 AM99 °FLow level haze.21 mph9%29.89 "Hg2 mi
10:30 AM97 °FLow level haze.23 mph9%29.89 "Hg2 mi
10:00 AM93 °FClear.21 mph11%29.89 "Hg4 mi
9:30 AM90 °FClear.18 mph14%29.89 "Hg4 mi
9:00 AM88 °FClear.17 mph16%29.89 "Hg5 mi
8:30 AM84 °FClear.13 mph18%29.89 "Hg5 mi
8:00 AM81 °FClear.14 mph20%29.86 "Hg5 mi
7:30 AM79 °FClear.13 mph21%29.86 "Hg5 mi
6:30 AM79 °FClear.13 mph21%29.83 "Hg5 mi
6:00 AM81 °FClear.13 mph20%29.83 "Hg5 mi
5:30 AM82 °FClear.13 mph20%29.83 "Hg5 mi
5:00 AM81 °FClear.12 mph23%29.80 "Hg5 mi
4:30 AM79 °FClear.10 mph28%29.80 "Hg5 mi
4:00 AM79 °FClear.9 mph28%29.80 "Hg5 mi
3:30 AM79 °FClear.9 mph32%29.80 "Hg5 mi
3:00 AM81 °FClear.10 mph30%29.80 "Hg5 mi
2:00 AM81 °FClear.10 mph34%29.83 "Hg5 mi
1:30 AM79 °FClear.10 mph42%29.83 "Hg5 mi
1:00 AM77 °FClear.7 mph54%29.83 "Hg5 mi
Weather by CustomWeather, © 2014

See weather overview